Temperature
24 24 24 24 24 23 24 25 25 24 23 22 21 20 19 18 18 17 17 17 16 16 16 16 17 17 17 17 17 17 17 17 16 16 16 16 16 16 15 15 15 15 14 14
23 23 23 23 23 23 23 23 23 23 22 21 20 19 18 18 17 17 16 16 16 16 16 16 16 16 16 16 16 16 16 16 16 16 16 16 16 16 15 15 15 15 15 14
24 23 23 23 23 23 22 22 23 22 22 20 19 18 18 17 16 16 15 15 15 15 15 15 16 16 16 16 16 15 15 15 15 15 15 15 15 15 15 15 15 15 15 14
23 23 22 23 21 21 21 21 21 21 20 19 18 17 16 16 16 15 14 14 14 14 15 15 15 15 15 15 15 15 15 14 14 15 15 15 15 15 15 15 14 15 15 14
23 23 23 21 20 20 21 20 20 20 19 18 17 17 17 15 14 14 14 14 14 14 14 14 14 14 14 14 14 14 14 14 14 14 14 14 14 14 14 14 14 14 14 14
22 22 22 23 21 19 21 20 19 19 19 18 18 20 19 15 14 14 13 13 13 13 13 14 14 13 14 14 14 14 14 13 13 13 13 14 14 14 14 14 14 14 14 14
22 22 23 21 19 19 21 22 19 18 18 18 18 19 16 14 13 13 13 13 13 13 13 13 13 13 13 13 13 13 13 13 13 13 13 13 13 13 13 13 13 13 13 14
21 21 22 18 19 20 21 19 18 18 17 17 16 15 14 14 13 13 13 12 12 12 12 12 12 12 12 12 12 12 12 12 12 12 12 13 13 13 13 13 13 13 13 13
21 21 18 17 18 18 17 18 17 17 16 15 15 14 14 13 13 12 12 12 12 11 11 11 11 11 11 11 11 11 11 11 11 11 12 12 12 12 12 12 12 12 12 12
19 18 17 16 16 15 16 16 16 15 15 14 14 14 13 13 12 12 11 11 11 11 11 11 11 10 10 10 10 10 10 10 11 11 11 11 11 11 11 11 11 11 11 12
19 18 16 15 15 15 15 15 14 14 14 13 13 13 13 12 12 11 11 11 11 10 10 10 10 10 10 10 9 10 10 10 10 10 10 10 10 10 10 10 10 10 10 11
19 18 18 16 15 14 14 14 14 13 13 13 12 12 12 12 11 11 10 10 10 10 10 9 9 9 9 9 9 9 9 9 9 9 9 9 9 9 10 10 10 10 10 10
17 15 15 15 14 13 13 13 13 13 12 12 12 11 11 11 11 10 10 10 10 9 9 9 9 9 9 8 8 8 8 8 8 8 8 8 8 8 9 9 9 10 10 10
14 13 14 13 13 13 13 12 12 12 12 11 11 11 11 10 10 10 10 10 9 9 9 9 8 8 8 8 8 8 8 8 8 7 7 7 7 7 8 8 8 9 9 9
13 13 13 13 12 12 12 12 11 11 11 11 11 10 10 10 10 10 9 9 9 9 9 8 8 8 8 7 7 7 7 7 7 7 7 7 7 7 7 7 7 8 8 8
12 12 12 12 12 11 11 11 11 11 11 11 10 10 10 10 9 9 9 9 8 8 8 8 8 7 7 7 7 7 7 6 6 6 6 6 6 6 6 6 7 7 7 7
12 12 11 11 11 11 11 11 11 11 10 10 10 10 9 9 9 9 8 8 8 8 8 8 7 7 7 7 6 6 6 6 6 6 6 6 6 6 6 6 6 6 6 6
12 12 12 11 11 11 11 10 10 10 10 10 9 9 9 9 8 8 8 8 8 7 7 7 7 7 6 6 6 6 6 6 6 6 5 5 5 5 5 5 5 5 6 6
11 11 11 11 10 10 10 10 10 10 9 9 9 8 8 8 8 8 8 7 7 7 7 7 7 6 6 6 6 5 5 5 5 5 5 5 5 5 5 5 5 5 5 5
10 10 10 10 10 10 10 9 9 9 9 8 8 8 8 8 8 8 7 7 7 7 7 6 6 6 6 6 5 5 5 5 5 5 5 5 5 4 4 4 4 4 4 5
9 9 9 9 9 9 9 9 8 8 8 8 8 8 7 7 7 7 7 7 7 7 6 6 6 5 5 5 5 5 5 5 5 5 5 4 4 4 4 4 4 4 4 4
9 9 9 9 9 8 8 8 8 8 8 7 7 7 7 7 7 7 7 6 6 6 6 5 5 5 5 5 4 4 5 4 4 4 4 4 4 4 4 3 3 3 3 4
9 8 8 8 8 8 8 8 7 7 7 7 7 7 7 7 6 6 6 6 6 6 5 5 5 5 4 4 4 4 4 4 4 4 4 4 3 3 3 3 3 3 3 3
8 8 8 7 7 7 7 7 7 7 7 7 6 6 6 6 6 6 6 6 6 5 5 5 5 4 4 4 4 4 4 4 4 3 3 3 3 3 3 3 3 3 3 3
7 7 7 7 7 7 7 7 6 6 6 6 6 6 6 6 6 6 5 5 5 5 5 4 4 4 4 4 4 4 3 3 3 3 3 3 3 2 2 2 2 2 3 3
7 6 6 6 6 6 6 6 6 6 6 6 6 6 6 5 5 5 5 5 5 5 4 4 4 4 4 3 3 3 3 3 3 3 3 2 2 2 2 2 2 2 2 2
6 6 6 5 6 6 6 6 6 5 5 5 5 5 5 5 5 5 5 4 4 4 4 4 4 3 3 3 3 3 3 3 3 2 2 2 2 2 2 2 2 2 2 2
Wind_Speed
1 2 2 4 6 7 8 6 7 4 4 4 4 3 4 5 6 8 9 11 11 11 11 10 10 9 8 8 6 5 4 4 4 6 6 7 7 8 9 9 10 11 11 11
4 3 4 5 6 7 7 5 5 4 4 4 5 5 5 5 6 8 9 10 10 11 11 11 11 10 9 8 7 6 5 5 5 6 6 6 7 8 8 9 10 10 11 12
6 4 5 9 8 9 7 6 7 7 4 8 8 6 5 5 6 7 7 8 9 10 10 10 10 10 9 9 8 7 7 7 7 7 7 7 7 8 8 9 10 11 11 12
5 5 9 1 3 4 5 4 4 3 7 9 8 7 6 5 5 5 6 7 8 9 9 10 10 10 9 9 9 8 8 8 8 8 8 8 8 8 9 10 10 10 11 13
6 8 6 3 5 6 6 5 5 6 8 8 8 8 5 4 4 4 5 5 6 7 8 9 10 10 10 9 9 9 10 10 10 10 9 9 9 10 10 10 10 11 11 12
7 8 7 3 7 5 5 6 7 8 9 9 8 6 4 3 2 3 4 4 5 6 7 9 9 10 10 10 11 11 11 12 11 11 10 11 11 11 10 10 11 11 12 12
11 9 6 5 8 8 7 3 9 9 9 9 7 1 4 4 2 1 2 4 5 6 7 8 9 10 10 11 12 12 12 12 12 12 12 12 11 11 10 10 11 11 13 12
9 10 6 9 9 8 2 6 9 9 8 7 5 4 4 3 2 0 2 3 4 5 6 7 9 10 10 11 12 12 12 12 12 12 12 11 11 11 11 11 11 11 12 13
6 2 5 8 6 3 4 6 7 7 7 6 6 5 4 3 2 1 2 2 4 5 6 7 8 10 11 11 12 13 13 13 13 13 12 12 12 12 11 10 10 11 11 11
4 5 5 6 5 5 5 6 6 6 7 7 6 5 5 3 2 2 2 3 4 6 7 8 9 10 11 12 12 13 14 14 13 13 13 13 11 11 10 10 10 11 11 12
6 5 6 7 7 7 7 6 6 6 6 6 6 5 5 4 3 3 2 3 4 6 7 9 10 10 11 12 13 14 14 13 14 13 13 13 13 11 12 12 11 12 12 13
7 8 7 7 9 9 8 8 7 7 6 6 5 5 5 4 4 3 4 4 5 6 8 9 10 11 11 11 12 13 13 13 12 12 12 12 13 14 13 13 15 16 17 17
3 4 4 5 8 9 8 8 7 7 7 6 6 5 5 5 4 5 5 6 7 8 9 10 11 11 12 12 12 13 14 14 12 12 13 13 13 14 15 14 14 15 17 17
6 6 6 7 8 9 8 8 7 6 6 6 6 5 6 6 6 6 7 7 8 9 10 11 12 12 12 12 13 14 15 14 13 13 13 14 14 14 14 16 16 14 13 14
9 9 7 7 8 8 8 7 7 7 7 6 6 6 7 7 8 8 8 8 9 10 11 11 12 13 13 13 14 15 15 13 13 14 14 15 15 15 15 16 15 15 14 13
9 8 8 9 9 9 9 9 8 8 7 7 7 7 8 8 9 9 9 9 10 11 12 12 13 13 13 14 15 14 13 15 15 15 15 15 14 15 15 15 16 15 14 14
11 11 10 10 10 10 9 9 9 8 8 8 9 8 9 9 10 10 10 10 11 12 12 13 14 13 13 14 15 13 14 14 16 15 14 14 14 15 15 15 15 15 15 15
12 11 10 10 9 9 9 9 8 8 9 9 8 9 10 11 11 11 11 12 12 13 13 14 13 14 15 15 14 13 14 14 14 14 14 14 15 15 16 16 17 17 16 15
9 9 9 9 8 8 8 8 8 9 9 8 9 10 11 12 12 12 12 13 13 14 14 14 12 15 16 15 14 13 15 16 16 15 15 15 16 16 15 16 17 17 16 15
7 7 7 7 7 8 8 8 8 9 9 9 9 10 11 12 12 12 13 13 12 12 14 14 15 15 15 15 14 14 15 16 17 16 16 15 16 16 16 17 17 17 16 15
6 6 6 7 7 8 8 9 9 9 9 9 10 11 12 12 12 12 12 13 13 13 14 14 13 13 14 14 16 15 15 16 16 16 16 16 16 16 17 17 17 16 16 15
5 6 6 7 7 8 8 9 9 10 10 10 11 12 12 12 13 13 14 12 13 12 11 12 13 14 15 17 15 15 16 16 16 15 15 16 16 16 17 17 17 16 16 15
6 6 7 8 8 9 9 9 10 10 11 11 12 12 12 12 11 12 13 12 12 12 12 13 14 18 20 16 15 15 16 16 16 16 16 16 16 16 16 17 16 16 15 15
8 8 8 8 8 9 10 10 10 10 11 11 11 12 12 11 11 11 12 12 12 13 13 14 16 19 19 15 15 15 15 15 15 15 16 16 15 15 15 15 15 15 15 16
9 9 10 10 10 9 11 11 10 10 11 10 12 12 11 10 12 12 13 14 14 14 13 15 18 19 16 15 15 15 15 15 16 15 15 15 15 15 15 15 15 15 14 13
10 9 9 10 9 9 9 9 9 9 9 10 10 10 10 10 11 12 11 13 16 14 14 13 14 14 14 14 15 15 15 16 16 15 15 15 16 16 15 15 17 14 13 12
10 9 8 9 9 9 9 9 10 10 10 10 11 11 11 11 11 11 12 12 13 13 13 13 13 13 13 13 14 14 15 15 14 15 15 14 14 14 14 15 13 12 12 11
Wind_Direction
130 113 179 200 196 202 225 247 252 230 193 171 152 127 98 81 68 58 46 39 33 29 25 21 21 18 16 8 1 353 342 319 301 291 281 272 265 259 257 256 256 256 254 251
195 181 211 227 223 217 223 234 227 197 185 139 137 130 113 87 69 56 44 34 28 25 22 17 14 10 8 4 359 352 343 332 321 309 299 287 276 266 261 258 257 256 254 252
232 190 236 241 228 215 209 210 207 214 185 148 148 138 115 87 69 54 40 31 24 21 17 11 8 3 0 357 355 352 347 338 330 317 305 294 288 278 267 261 257 255 254 253
237 216 239 158 91 185 184 189 197 162 144 157 153 138 120 90 69 53 37 26 20 14 12 8 6 3 358 356 355 353 348 339 333 324 311 302 293 282 274 269 263 257 257 256
228 236 246 201 170 172 183 184 178 164 150 148 146 153 143 97 63 48 32 20 13 6 3 3 3 359 355 356 355 352 346 337 331 324 316 307 296 287 280 273 269 263 260 258
219 232 240 185 153 165 188 194 173 172 161 160 168 198 168 129 89 51 31 19 9 2 0 1 359 354 352 353 352 348 340 332 328 323 315 307 299 293 286 275 270 270 265 261
224 234 241 130 146 166 202 190 160 174 172 175 191 205 119 137 125 66 31 13 2 360 0 356 351 349 349 350 348 342 335 330 325 322 316 309 304 297 291 283 277 272 270 264
213 225 223 144 162 191 144 114 154 168 173 178 172 139 143 151 150 80 8 1 353 350 351 348 346 344 343 343 339 334 331 328 326 322 318 313 308 302 296 289 281 275 272 270
212 204 96 155 168 135 131 150 157 166 170 172 174 176 176 180 187 241 314 333 337 338 336 338 341 341 335 334 331 328 326 326 324 323 320 316 311 306 300 291 283 281 276 273
213 202 173 173 172 166 164 161 160 164 168 177 184 186 190 199 215 244 284 314 324 325 328 333 335 332 328 327 325 323 323 323 322 322 322 320 314 306 301 296 291 287 283 279
216 193 180 194 191 178 168 165 165 171 178 184 189 197 204 212 225 247 273 297 309 318 324 324 326 328 328 327 324 321 320 321 321 322 319 316 313 307 300 294 291 288 287 284
219 197 196 190 180 177 176 179 180 181 185 190 197 204 212 223 232 248 271 291 302 310 313 317 321 322 324 324 321 319 320 321 320 318 316 314 312 309 293 278 279 271 268 271
223 174 186 168 175 182 188 189 189 192 195 199 206 212 222 232 238 253 270 283 294 301 306 310 313 314 318 320 318 316 314 314 314 314 313 312 311 310 310 302 279 267 265 263
199 180 190 188 188 190 193 192 195 201 205 210 217 224 232 242 250 260 271 282 290 295 299 303 305 307 312 313 311 309 309 309 308 307 307 307 307 306 305 305 306 303 290 273
203 205 202 189 188 188 189 191 198 208 214 221 227 234 241 248 257 264 273 282 286 289 294 298 300 302 307 307 305 305 305 305 307 307 304 303 302 302 301 301 299 299 300 296
194 196 195 193 193 194 197 203 213 223 228 233 240 248 252 256 263 268 273 278 282 287 292 295 296 299 303 302 301 301 300 297 298 301 301 301 301 301 301 301 300 298 296 297
193 196 197 200 203 205 210 217 227 235 239 243 248 253 256 259 264 268 272 276 279 283 287 290 293 298 299 298 297 298 299 299 297 296 298 300 301 301 300 300 299 297 295 295
209 210 208 208 209 213 220 227 234 240 244 250 253 253 255 259 264 270 275 279 281 283 285 288 293 298 296 295 296 297 297 296 297 297 297 297 299 301 300 298 299 297 295 294
208 212 213 215 219 223 229 234 238 243 246 248 249 253 257 262 266 271 277 279 281 284 287 291 295 292 293 293 295 292 292 294 294 294 294 295 295 296 297 297 298 297 295 294
204 210 215 220 225 230 235 239 241 243 245 248 254 260 263 266 269 273 276 276 276 281 287 293 294 292 293 295 297 293 293 293 293 294 294 294 295 295 296 296 297 296 294 293
206 212 218 225 231 234 236 239 240 244 248 251 254 260 267 271 273 274 275 277 280 284 288 289 286 287 291 297 298 293 292 292 293 293 293 293 293 294 295 296 296 295 293 292
218 223 229 234 238 243 243 244 245 248 252 254 256 261 266 270 272 274 273 275 281 284 286 286 287 289 295 297 292 291 291 292 293 292 292 292 293 294 295 296 296 295 293 292
235 239 240 241 245 250 251 250 250 251 253 255 259 263 266 271 275 277 278 279 281 285 286 285 289 293 294 293 291 291 292 292 292 292 292 292 293 293 294 294 293 293 294 292
245 245 246 246 247 249 252 255 256 256 257 260 261 264 268 272 274 273 276 276 271 277 282 282 283 287 291 290 291 292 293 292 292 291 291 292 292 292 293 293 293 293 293 291
247 246 245 245 246 249 254 258 260 260 261 262 265 267 267 267 271 278 281 283 280 277 281 284 284 287 288 288 289 290 290 290 290 292 292 292 292 291 291 291 293 293 293 290
248 246 246 245 248 253 256 257 258 261 264 267 270 272 273 272 273 275 276 278 279 279 282 286 288 287 287 289 289 289 290 292 292 291 290 291 290 289 290 292 293 293 292 289
250 249 249 250 251 251 254 256 259 263 265 268 274 278 279 280 280 280 281 282 284 285 286 287 288 288 289 289 288 288 288 290 291 290 290 289 289 290 291 292 293 294 294 290
Height
1503 1505 1505 1507 1509 1511 1510 1507 1511 1511 1517 1521 1525 1529 1531 1532 1532 1531 1530 1528 1527 1525 1524 1522 1521 1519 1517 1516 1514 1513 1512 1510 1509 1509 1508 1507 1507 1506 1506 1505 1505 1505 1505 1505
1506 1507 1507 1508 1508 1509 1510 1510 1511 1514 1519 1521 1526 1529 1530 1531 1531 1530 1530 1529 1527 1526 1524 1522 1521 1519 1517 1515 1513 1512 1510 1509 1508 1506 1505 1504 1503 1502 1501 1501 1501 1500 1500 1500
1504 1508 1508 1509 1504 1507 1509 1509 1510 1513 1516 1522 1525 1528 1530 1531 1531 1530 1530 1529 1527 1526 1524 1522 1521 1519 1517 1514 1512 1511 1509 1507 1505 1504 1502 1501 1499 1498 1497 1496 1496 1495 1494 1494
1503 1510 1517 1504 1505 1506 1509 1510 1511 1513 1517 1521 1524 1528 1530 1530 1530 1530 1529 1528 1527 1526 1524 1522 1520 1518 1516 1514 1512 1509 1507 1505 1503 1501 1499 1497 1495 1494 1493 1492 1491 1489 1488 1488
1504 1506 1504 1506 1506 1507 1508 1510 1512 1514 1518 1521 1524 1526 1528 1529 1529 1529 1529 1528 1527 1525 1524 1522 1519 1517 1515 1513 1510 1508 1505 1503 1500 1498 1495 1493 1491 1489 1488 1487 1485 1484 1483 1482
1504 1507 1506 1498 1502 1506 1508 1509 1511 1513 1516 1519 1521 1520 1523 1527 1527 1527 1527 1526 1525 1524 1522 1520 1518 1516 1513 1511 1508 1505 1503 1500 1497 1495 1492 1489 1487 1485 1483 1481 1479 1478 1477 1475
1501 1501 1493 1498 1503 1506 1509 1503 1508 1511 1514 1517 1518 1519 1523 1524 1525 1525 1525 1524 1523 1522 1520 1518 1516 1514 1511 1509 1506 1503 1500 1497 1494 1491 1488 1485 1482 1480 1477 1475 1473 1472 1470 1469
1497 1500 1497 1500 1502 1501 1500 1504 1506 1510 1513 1516 1518 1520 1521 1522 1523 1523 1523 1522 1521 1519 1518 1516 1513 1511 1509 1506 1503 1500 1496 1493 1490 1487 1484 1481 1478 1475 1472 1470 1467 1465 1464 1462
1490 1493 1495 1498 1499 1501 1502 1504 1507 1509 1512 1514 1516 1518 1519 1520 1520 1520 1520 1519 1518 1516 1515 1513 1511 1508 1506 1503 1499 1496 1493 1490 1486 1483 1480 1476 1473 1470 1467 1464 1462 1459 1458 1455
1492 1493 1496 1498 1499 1501 1502 1504 1506 1508 1510 1512 1514 1515 1516 1517 1517 1517 1517 1516 1515 1513 1512 1510 1507 1505 1502 1499 1496 1493 1489 1486 1482 1479 1475 1472 1468 1465 1462 1459 1456 1454 1451 1449
1488 1491 1495 1496 1497 1499 1501 1503 1505 1506 1508 1510 1511 1512 1513 1514 1514 1514 1513 1513 1512 1510 1508 1506 1504 1501 1498 1495 1492 1489 1485 1482 1478 1474 1470 1466 1463 1460 1456 1453 1451 1448 1445 1443
1482 1485 1488 1491 1494 1496 1498 1500 1502 1504 1505 1507 1508 1509 1510 1510 1511 1510 1510 1509 1508 1507 1504 1502 1500 1497 1494 1491 1488 1485 1481 1478 1474 1470 1466 1461 1457 1453 1449 1446 1442 1439 1436 1434
1482 1484 1486 1489 1491 1493 1496 1497 1499 1501 1502 1504 1505 1506 1506 1507 1507 1507 1506 1505 1504 1502 1500 1498 1496 1493 1490 1487 1484 1480 1477 1473 1469 1465 1461 1456 1452 1447 1442 1437 1434 1431 1428 1425
1480 1482 1485 1486 1489 1491 1493 1495 1497 1498 1499 1501 1501 1502 1502 1503 1502 1502 1502 1501 1499 1498 1496 1493 1491 1488 1485 1482 1479 1476 1472 1468 1464 1460 1456 1451 1447 1442 1437 1432 1427 1422 1419 1417
1477 1479 1481 1483 1486 1488 1490 1492 1493 1495 1496 1497 1497 1498 1498 1498 1498 1497 1497 1495 1494 1492 1490 1488 1486 1483 1480 1477 1474 1470 1467 1463 1459 1454 1450 1445 1441 1436 1431 1426 1421 1416 1412 1409
1473 1476 1478 1480 1482 1484 1486 1488 1489 1490 1491 1492 1492 1493 1493 1493 1492 1492 1491 1490 1488 1487 1485 1482 1480 1477 1474 1471 1468 1464 1460 1456 1452 1448 1443 1439 1435 1430 1425 1420 1415 1410 1406 1402
1469 1471 1473 1476 1478 1479 1481 1483 1484 1485 1486 1487 1487 1488 1488 1487 1487 1486 1485 1484 1482 1480 1478 1476 1473 1471 1468 1465 1461 1458 1454 1449 1445 1441 1437 1433 1428 1423 1419 1414 1408 1403 1399 1396
1464 1466 1469 1471 1473 1475 1476 1478 1479 1480 1481 1481 1482 1482 1482 1481 1481 1480 1479 1477 1475 1473 1472 1469 1467 1464 1461 1458 1454 1451 1447 1443 1438 1434 1430 1426 1421 1417 1412 1407 1402 1397 1392 1388
1460 1463 1465 1467 1469 1470 1472 1473 1474 1475 1475 1476 1476 1476 1475 1475 1474 1473 1472 1470 1468 1466 1464 1462 1459 1456 1453 1450 1447 1443 1439 1435 1431 1427 1422 1418 1413 1409 1404 1399 1394 1389 1384 1380
1457 1459 1461 1462 1464 1465 1467 1467 1468 1469 1470 1470 1470 1469 1469 1468 1467 1466 1465 1463 1461 1459 1457 1454 1451 1449 1446 1443 1439 1436 1432 1428 1423 1419 1415 1410 1406 1401 1396 1391 1386 1381 1376 1372
1453 1455 1456 1458 1459 1460 1461 1462 1463 1463 1464 1464 1463 1463 1462 1461 1461 1459 1457 1455 1454 1452 1449 1446 1444 1441 1438 1435 1431 1427 1423 1420 1415 1411 1407 1402 1397 1393 1388 1383 1378 1373 1368 1363
1449 1451 1452 1453 1454 1455 1456 1456 1457 1457 1457 1457 1457 1456 1455 1454 1453 1452 1450 1448 1446 1444 1441 1439 1436 1433 1430 1426 1422 1419 1415 1411 1407 1403 1398 1394 1389 1385 1380 1375 1369 1364 1359 1355
1445 1446 1447 1448 1449 1450 1450 1450 1450 1450 1450 1450 1450 1449 1448 1447 1446 1445 1442 1441 1439 1436 1434 1431 1428 1425 1421 1418 1414 1410 1406 1402 1398 1394 1390 1386 1381 1376 1371 1366 1361 1356 1351 1346
1440 1441 1442 1443 1443 1444 1444 1444 1444 1444 1443 1443 1443 1442 1441 1440 1438 1437 1435 1433 1430 1428 1425 1422 1419 1416 1413 1409 1406 1402 1398 1394 1390 1386 1382 1377 1372 1368 1363 1358 1352 1347 1342 1337
1435 1436 1436 1437 1437 1437 1437 1438 1438 1437 1437 1436 1435 1435 1434 1432 1431 1428 1427 1425 1422 1419 1416 1413 1410 1407 1404 1401 1397 1393 1390 1386 1382 1377 1373 1368 1363 1359 1354 1349 1344 1339 1334 1329
1429 1430 1430 1430 1431 1431 1431 1431 1431 1430 1430 1429 1428 1427 1426 1425 1423 1421 1418 1416 1414 1411 1408 1405 1402 1399 1396 1392 1389 1385 1381 1377 1373 1369 1364 1360 1355 1350 1345 1341 1336 1331 1326 1322
1423 1423 1423 1424 1424 1424 1424 1424 1424 1423 1423 1422 1421 1420 1419 1417 1415 1413 1411 1409 1406 1404 1401 1398 1395 1391 1388 1384 1380 1377 1373 1369 1365 1360 1356 1351 1346 1342 1337 1333 1328 1324 1319 1315